Meteo Giornale » Osservazioni meteo Francia » Parigi-Orly

ore: 00:30 - Osservazioni Meteo Parigi-Orly
Lat. 48° 44' N Lon. 2° 24' E Alt. 89 metri s.l.m.

sereno Europe/Paris

16 °C

Sereno

Temp. 24 Ore

13 °C

23 °C

Nord

5.5 Km/h

Dew point 12 °C

Umidità 77 %

Visibilità  10 Km

Il sole sorge alle ore 05:44

Il sole tramonta alle ore 21:57

Data e Ora Cielo e Fenomeni T °C DP °C Um. % Pres. hPa Vis. km Vento km/h
Oggi h: 00:30 sereno Sereno 16 12 77 1021 10 N 5.5
Oggi h: 00:00 sereno Sereno 16 12 77 1021 10 N 3.7
Ieri h: 23:30 sereno Sereno 16 11 72 1021 10 N 0
Ieri h: 23:00 sereno Sereno 17 11 67 1021 10 N 3.7
Ieri h: 22:30 sereno Sereno 18 11 63 1021 10 SO 7.4
Ieri h: 22:00 poco_nuvoloso Poco Nuvoloso 19 11 59 1021 10 N 5.5
Ieri h: 21:30 poco_nuvoloso Poco Nuvoloso 20 11 56 1021 10 S/SO 7.4
Ieri h: 21:00 poco_nuvoloso Poco Nuvoloso 21 11 52 1021 10 S/SO 11.1
Ieri h: 20:30 poco_nuvoloso Poco Nuvoloso 21 11 52 1021 10 S 9.3
Ieri h: 20:00 poco_nuvoloso Poco Nuvoloso 22 12 53 1021 10 SO 11.1
Ieri h: 19:30 poco_nuvoloso Poco Nuvoloso 21 12 56 1021 10 SO 14.8
Ieri h: 19:00 poco_nuvoloso Poco Nuvoloso 23 12 49 1021 10 SO 11.1
Ieri h: 18:30 molto_nuvoloso Molto Nuvoloso 22 12 53 1021 10 SO 13
Ieri h: 18:00 molto_nuvoloso Molto Nuvoloso 21 11 52 1021 10 SO 14.8
Ieri h: 17:30 molto_nuvoloso Molto Nuvoloso 21 11 52 1021 10 SO 16.7
Ieri h: 17:00 molto_nuvoloso Molto Nuvoloso 22 12 53 1021 10 SO 18.5
Ieri h: 16:00 molto_nuvoloso Molto Nuvoloso 22 11 49 1021 10 SO 16.7
Ieri h: 15:30 molto_nuvoloso Molto Nuvoloso 22 12 53 1021 10 SO 18.5
Ieri h: 15:00 molto_nuvoloso Molto Nuvoloso 21 11 52 1021 10 SO 18.5
Ieri h: 14:30 molto_nuvoloso Molto Nuvoloso 21 12 56 1021 10 O/SO 18.5
Ieri h: 14:00 molto_nuvoloso Molto Nuvoloso 20 13 64 1022 10 SO 20.3
Ieri h: 13:30 molto_nuvoloso Molto Nuvoloso 20 12 59 1022 10 O/SO 14.8
Ieri h: 13:00 molto_nuvoloso Molto Nuvoloso 19 12 63 1022 10 SO 14.8
Ieri h: 12:30 molto_nuvoloso Molto Nuvoloso 19 11 59 1022 10 SO 16.7
Ieri h: 12:00 molto_nuvoloso Molto Nuvoloso 19 11 59 1022 10 S/SO 14.8
Ieri h: 11:30 molto_nuvoloso Molto Nuvoloso 20 13 64 1022 10 S/SO 14.8
Ieri h: 11:00 molto_nuvoloso Molto Nuvoloso 18 12 67 1022 10 SO 16.7
Ieri h: 10:30 molto_nuvoloso Molto Nuvoloso 17 12 72 1022 10 SO 16.7
Ieri h: 10:00 molto_nuvoloso Molto Nuvoloso 17 12 72 1022 10 SO 14.8
Ieri h: 09:30 molto_nuvoloso Molto Nuvoloso 16 12 77 1022 10 O/SO 14.8
Ieri h: 09:00 molto_nuvoloso Molto Nuvoloso 16 12 77 1021 10 SO 14.8
Ieri h: 08:30 molto_nuvoloso Molto Nuvoloso 16 12 77 1021 10 S/SO 11.1
Ieri h: 08:00 nuvoloso Nuvoloso 15 12 82 1021 10 SO 7.4
Ieri h: 07:30 sereno Sereno 14 12 87 1021 10 SO 13
Ieri h: 07:00 molto_nuvoloso Molto Nuvoloso 14 11 82 1020 10 SO 13
Ieri h: 06:30 molto_nuvoloso Molto Nuvoloso 14 11 82 1020 10 SO 13
Ieri h: 06:00 molto_nuvoloso Molto Nuvoloso 14 11 82 1020 10 SO 14.8
Ieri h: 05:30 molto_nuvoloso Molto Nuvoloso 14 11 82 1020 10 S/SO 18.5
Ieri h: 05:00 molto_nuvoloso Molto Nuvoloso 14 11 82 1020 10 SO 14.8
Ieri h: 04:30 sereno Sereno 14 11 82 1020 10 SO 13
Ieri h: 04:00 sereno Sereno 13 11 87 1020 10 SO 11.1
Ieri h: 03:30 sereno Sereno 14 11 82 1020 10 SO 9.3
Ieri h: 03:00 sereno Sereno 14 11 82 1020 10 SO 9.3
Ieri h: 02:30 sereno Sereno 14 11 82 1019 10 SO 14.8
Ieri h: 02:00 sereno Sereno 14 11 82 1020 10 SO 13